Location: Baix
(44.7118°N, 4.7648°E)
Time: 18:12:25
(UTC+00:00)

A-11 Canister half - All Passes

Search period start: 04 December 2020 00:00
Search period end: 14 December 2020 00:00
Orbit: 1516 x 1684 km, 47.2° (Epoch: 03 December)

Date Brightness Start Highest point End Pass type
(mag) Time Alt. Az. Time Alt. Az. Time Alt. Az.
04 Dec - 08:35:35 10° SSW 08:44:03 37° SE 08:52:48 10° ENE daylight
04 Dec - 10:38:27 10° WSW 10:48:13 82° SSE 10:58:20 10° ENE daylight
04 Dec - 12:43:40 10° W 12:53:39 77° N 13:03:52 10° E daylight
04 Dec - 14:48:59 10° WNW 14:59:04 80° SSW 15:09:16 10° ESE daylight
04 Dec - 16:54:27 10° WNW 17:03:17 36° SW 17:12:07 10° SSE visible
05 Dec - 08:12:56 10° SSW 08:21:13 34° SE 08:29:45 10° ENE daylight
05 Dec - 10:15:34 10° WSW 10:25:17 80° SSE 10:35:22 10° ENE daylight
05 Dec - 12:20:43 10° W 12:30:39 77° N 12:40:53 10° E daylight
05 Dec - 14:26:03 10° WNW 14:36:08 82° SSW 14:46:19 10° ESE daylight
05 Dec - 16:31:26 10° WNW 16:40:25 38° SW 16:49:25 10° SSE visible
06 Dec - 07:50:16 10° SSW 07:58:23 32° SE 08:06:42 10° ENE daylight
06 Dec - 09:52:41 10° WSW 10:02:20 77° SSE 10:12:23 10° ENE daylight
06 Dec - 11:57:45 10° W 12:07:41 78° N 12:17:52 10° E daylight
06 Dec - 14:03:06 10° WNW 14:13:10 85° SSW 14:23:22 10° ESE daylight
06 Dec - 16:08:25 10° WNW 16:17:33 40° SW 16:26:42 10° SSE daylight
07 Dec - 07:27:40 10° S 07:35:33 30° SE 07:43:39 10° ENE daylight
07 Dec - 09:29:48 10° SW 09:39:25 75° SSE 09:49:25 10° ENE daylight
07 Dec - 11:34:48 10° W 11:44:41 78° N 11:54:53 10° E daylight
07 Dec - 13:40:09 10° WNW 13:50:12 87° SSW 14:00:26 10° ESE daylight
07 Dec - 15:45:26 10° WNW 15:54:40 42° SW 16:03:56 10° SSE daylight
07 Dec - 17:55:48 10° WSW 17:57:35 11° WSW 17:59:22 10° SW visible
08 Dec - 07:05:04 10° S 07:12:43 28° SE 07:20:35 10° ENE daylight
08 Dec - 09:06:57 10° SW 09:16:30 72° SSE 09:26:26 10° ENE daylight
08 Dec - 11:11:51 10° W 11:21:42 78° N 11:31:53 10° E daylight
08 Dec - 13:17:13 10° WNW 13:27:14 89° SSW 13:37:28 10° ESE daylight
08 Dec - 15:22:27 10° WNW 15:31:47 45° SW 15:41:11 10° SSE daylight
08 Dec - 17:31:34 10° WSW 17:34:47 12° WSW 17:38:01 10° SW visible
09 Dec - 06:42:30 10° S 06:49:54 26° SE 06:57:29 10° ENE daylight
09 Dec - 08:44:05 10° SW 08:53:35 70° SSE 09:03:27 10° ENE daylight
09 Dec - 10:48:54 10° W 10:58:44 79° N 11:08:53 10° E daylight
09 Dec - 12:54:16 10° WNW 13:04:17 90° NNE 13:14:30 10° ESE daylight
09 Dec - 14:59:29 10° WNW 15:08:53 47° SW 15:18:23 10° SSE daylight
09 Dec - 17:07:50 10° W 17:11:59 13° WSW 17:16:08 10° SSW visible
10 Dec - 06:19:58 10° S 06:27:06 25° SE 06:34:23 10° E visible
10 Dec - 08:21:16 10° SW 08:30:41 67° SSE 08:40:30 10° ENE daylight
10 Dec - 10:25:59 10° W 10:35:45 79° N 10:45:54 10° E daylight
10 Dec - 12:31:21 10° WNW 12:41:19 88° NNE 12:51:32 10° ESE daylight
10 Dec - 14:36:31 10° WNW 14:46:00 49° SW 14:55:35 10° SSE daylight
10 Dec - 16:44:20 10° W 16:49:11 15° WSW 16:54:03 10° SSW visible
11 Dec - 05:57:27 10° S 06:04:17 23° SE 06:11:14 10° E visible
11 Dec - 07:58:25 10° SW 08:07:47 64° SSE 08:17:31 10° ENE daylight
11 Dec - 10:03:02 10° W 10:12:47 80° N 10:22:54 10° E daylight
11 Dec - 12:08:24 10° WNW 12:18:21 86° NNE 12:28:33 10° ESE daylight
11 Dec - 14:13:32 10° WNW 14:23:06 52° SW 14:32:47 10° SE daylight
11 Dec - 16:20:56 10° W 16:26:22 16° WSW 16:31:50 10° SSW visible
12 Dec - 05:35:00 10° S 05:41:28 21° SE 05:48:05 10° E visible
12 Dec - 07:35:36 10° SW 07:44:53 62° SSE 07:54:33 10° ENE daylight
12 Dec - 09:40:06 10° W 09:49:49 81° N 09:59:54 10° ENE daylight
12 Dec - 11:45:28 10° WNW 11:55:23 85° NNE 12:05:34 10° ESE daylight
12 Dec - 13:50:36 10° WNW 14:00:12 54° SW 14:09:57 10° SE daylight
12 Dec - 15:57:38 10° W 16:03:33 17° SW 16:09:31 10° SSW daylight
13 Dec - 05:12:34 10° SSE 05:18:40 19° SE 05:24:53 10° E visible
13 Dec - 07:12:47 10° SW 07:22:00 59° SE 07:31:34 10° ENE daylight
13 Dec - 09:17:10 10° W 09:26:51 82° NNW 09:36:55 10° ENE daylight
13 Dec - 11:22:31 10° WNW 11:32:24 84° NNE 11:42:35 10° ESE daylight
13 Dec - 13:27:39 10° WNW 13:37:17 57° SW 13:47:06 10° SE daylight
13 Dec - 15:34:23 10° W 15:40:44 19° SW 15:47:08 10° SSW daylight
